User: anonymous   Login
Location: Voyageurs National Park
(48.5020°N, 92.9292°W)
Time: 00:50:10
(UTC-05:00)
Language:

Terra - Orbit

View from above orbital plane
View from above orbital plane
View from above satellite
View from above satellite

Ground track
Ground track

The orbit data is extracted from the following two-line orbital elements,

1 25994U 99068A   16151.71611894  .00000132  00000-0  39425-4 0  9995
2 25994  98.2103 226.2605 0001303  99.3433 260.7912 14.57103023874973
Epoch (UTC): 30 May 2016 17:11:12
Eccentricity: 0.0001303
inclination: 98.2103°
perigee height: 701 km
apogee height: 703 km
right ascension of ascending node: 226.2605°
argument of perigee: 99.3433°
revolutions per day: 14.57103023
mean anomaly at epoch: 260.7912°
orbit number at epoch: 87497

The dashed part of the orbit path shows where the satellite is in the earth's shadow,  

DLR